Weather History for Tatalina, AK

Change the Weather History Date:

Thursday, January 10, 2013

  Actual Average Record
Temperature  
Mean Temperature 16 °F -  
Max Temperature 24 °F 6 °F 37 °F (1997)
Min Temperature 8 °F -1 °F -25 °F (2007)
Degree Days  
Heating Degree Days 49    
Moisture  
Dew Point 15 °F    
Average Humidity 96    
Maximum Humidity 100    
Minimum Humidity 92    
Precipitation  
Precipitation 0.01 in - - ()
Sea Level Pressure  
Sea Level Pressure 29.96 in    
Wind  
Wind Speed 6 mph (NNE)    
Max Wind Speed 10 mph    
Max Gust Speed 17 mph    
Visibility 6 miles    
Events Fog , Snow    
Averages and records for this station are not official NWS values.
T = Trace of Precipitation, MM = Missing Value Source: NWS Daily Summary

Daily Weather History Graph

Daily Weather History Graph

Search for Another Location

Airport:

Trip Planner

Search our weather history database for the weather conditions in past years. The results will help you decide how hot, cold, wet, or windy it might be!

Date:

Astronomy

Jan. 10, 2013 Rise Set
Actual Time 10:45 AM AKST 4:18 PM AKST
Civil Twilight 9:41 AM AKST 5:22 PM AKST
Nautical Twilight 8:39 AM AKST 6:24 PM AKST
Astronomical Twilight 7:43 AM AKST 7:20 PM AKST
Moon 9:30 AM AKST (1/10) 3:47 PM AKST (1/10)
Length of Visible Light 7h 41m
Length of Day
5h 32m
Waning Crescent, 1% of the Moon is Illuminated
Jan 10
Waning Crescent
Jan 11
New
Jan 18
First Quarter
Jan 26
Full
Feb 3
Last Quarter

Hourly Weather History & Observations

Time (AKST) Temp. Windchill Dew Point Humidity Pressure Visibility Wind Dir Wind Speed Gust Speed Precip Events Conditions
12:06 AM 10.4 °F -2.4 °F 8.6 °F 92% 29.86 in 1.2 mi NNE 9.2 mph 17.3 mph N/A Snow Snow
12:46 AM 10.4 °F -3.3 °F 8.6 °F 92% 29.86 in 1.0 mi NNE 10.4 mph 17.3 mph N/A Snow Snow
12:55 AM 10.4 °F -2.4 °F 8.8 °F 93% 29.87 in 1.2 mi NNE 9.2 mph 17.3 mph N/A Snow Snow
1:46 AM 10.4 °F -1.5 °F 8.6 °F 92% 29.88 in 0.8 mi NNE 8.1 mph - N/A Snow Snow
1:55 AM 9.7 °F -3.3 °F 8.2 °F 94% 29.88 in 1.0 mi NNE 9.2 mph - N/A Snow Snow
2:26 AM 10.4 °F -1.5 °F 8.6 °F 92% 29.89 in 2.0 mi NNE 8.1 mph 16.1 mph N/A Snow Snow
2:46 AM 10.4 °F 0.8 °F 8.6 °F 92% 29.90 in 3.0 mi NNE 5.8 mph 15.0 mph N/A Snow Light Snow
3:06 AM 10.4 °F 0.8 °F 8.6 °F 92% 29.90 in 1.8 mi Variable 5.8 mph - N/A Snow Light Snow
3:26 AM 10.4 °F 0.8 °F 8.6 °F 92% 29.90 in 2.0 mi NNE 5.8 mph - N/A Snow Light Snow
3:55 AM 9.9 °F 1.6 °F 8.4 °F 94% 29.91 in 1.8 mi NNE 4.6 mph - N/A Snow Light Snow
4:06 AM 10.4 °F 0.8 °F 8.6 °F 92% 29.91 in 3.0 mi Variable 5.8 mph - N/A Snow Light Snow
4:26 AM 8.6 °F 0.1 °F 6.8 °F 92% 29.91 in 3.0 mi NNE 4.6 mph - N/A Snow Light Snow
4:46 AM 8.6 °F 0.1 °F 6.8 °F 92% 29.92 in 1.0 mi NNE 4.6 mph - N/A Snow Snow
4:55 AM 9.1 °F - 7.5 °F 93% 29.92 in 1.2 mi Variable 2.3 mph - N/A Snow Snow
5:06 AM 8.6 °F - 8.6 °F 100% 29.92 in 1.2 mi North 1.2 mph - N/A Snow Light Snow
5:26 AM 10.4 °F - 8.6 °F 92% 29.93 in 1.5 mi SSW 2.3 mph - N/A Snow Light Snow
5:46 AM 8.6 °F 0.1 °F 8.6 °F 100% 29.94 in 9.0 mi SW 4.6 mph - N/A Snow Light Snow
5:55 AM 9.5 °F 1.2 °F 7.9 °F 93% 29.94 in 10.0 mi SW 4.6 mph - N/A Snow Light Snow
6:55 AM 11.5 °F 2.1 °F 10.4 °F 95% 29.96 in 10.0 mi South 5.8 mph - N/A   Overcast
7:55 AM 11.8 °F 1.3 °F 10.4 °F 94% 29.99 in 10.0 mi South 6.9 mph - N/A   Mostly Cloudy
8:46 AM 17.6 °F 10.7 °F 17.6 °F 100% 30.01 in 10.0 mi WSW 4.6 mph - N/A   Overcast
8:55 AM 18.5 °F 11.7 °F 17.6 °F 96% 30.01 in 10.0 mi SSW 4.6 mph - N/A   Overcast
9:46 AM 19.4 °F 14.3 °F 19.4 °F 100% 30.03 in 10.0 mi WSW 3.5 mph - N/A   Overcast
9:55 AM 20.1 °F 12.3 °F 19.8 °F 99% 30.03 in 10.0 mi WSW 5.8 mph - N/A   Overcast
10:06 AM 21.2 °F 14.9 °F 19.4 °F 93% 30.03 in 9.0 mi WSW 4.6 mph - N/A Snow Light Snow Showers
10:26 AM 21.2 °F 14.9 °F 21.2 °F 100% 30.03 in 3.0 mi West 4.6 mph - N/A   Overcast
10:55 AM 20.8 °F 14.4 °F 20.5 °F 99% 30.04 in 10.0 mi SW 4.6 mph - N/A   Overcast
11:46 AM 21.2 °F 14.9 °F 21.2 °F 100% 30.06 in 4.0 mi Variable 4.6 mph - N/A Snow Light Snow
11:55 AM 22.1 °F 15.9 °F 21.9 °F 99% 30.06 in 3.0 mi SSW 4.6 mph - N/A Snow Light Snow
12:26 PM 23.0 °F 13.9 °F 23.0 °F 100% 30.06 in 7.0 mi WSW 8.1 mph - N/A Snow Light Snow
12:55 PM 23.4 °F 15.2 °F 23.2 °F 99% 30.06 in 8.0 mi WSW 6.9 mph - N/A Snow Light Snow
1:46 PM 24.8 °F 16.9 °F 23.0 °F 93% 30.06 in 10.0 mi SW 6.9 mph - N/A Snow Light Snow Showers
1:55 PM 23.9 °F 16.8 °F 23.7 °F 99% 30.05 in 10.0 mi SW 5.8 mph - N/A Snow Light Snow Showers
2:06 PM 24.8 °F 17.9 °F 24.8 °F 100% 30.05 in 10.0 mi SW 5.8 mph - N/A Snow Light Snow Showers
2:26 PM 24.8 °F 19.1 °F 24.8 °F 100% 30.04 in 10.0 mi WSW 4.6 mph - N/A   Overcast
2:46 PM 17.6 °F 12.3 °F 15.8 °F 93% 30.05 in 10.0 mi East 3.5 mph - N/A   Overcast
2:55 PM 17.4 °F - 17.4 °F 100% 30.05 in 10.0 mi Variable 1.2 mph - N/A   Overcast
3:46 PM 15.8 °F 8.6 °F 14.0 °F 93% 30.05 in 10.0 mi NE 4.6 mph - N/A   Overcast
3:55 PM 15.1 °F 6.4 °F 14.4 °F 97% 30.05 in 10.0 mi NE 5.8 mph - 0.00 in   Overcast
4:46 PM 14.0 °F 5.1 °F 14.0 °F 100% 30.04 in 10.0 mi Variable 5.8 mph - N/A   Overcast
4:55 PM 14.7 °F 7.3 °F 13.8 °F 96% 30.04 in 10.0 mi NE 4.6 mph - N/A   Overcast
5:55 PM 16.3 °F 9.2 °F 15.8 °F 98% 30.01 in 5.0 mi NNE 4.6 mph - N/A   Overcast
6:06 PM 17.6 °F 12.3 °F 15.8 °F 93% 30.01 in 6.0 mi NNE 3.5 mph - N/A   Overcast
6:46 PM 17.6 °F 12.3 °F 17.6 °F 100% 29.99 in 3.0 mi Variable 3.5 mph - N/A   Mist
6:55 PM 18.3 °F 11.5 °F 17.6 °F 97% 29.99 in 2.5 mi NE 4.6 mph - N/A   Mist
7:06 PM 19.4 °F 14.3 °F 17.6 °F 93% 29.98 in 7.0 mi NE 3.5 mph - N/A   Overcast
7:26 PM 17.6 °F 9.3 °F 15.8 °F 93% 29.97 in 6.0 mi Variable 5.8 mph - N/A   Overcast
7:55 PM 15.6 °F 7.0 °F 15.4 °F 99% 29.94 in 10.0 mi NNE 5.8 mph - N/A   Overcast
8:06 PM 17.6 °F 8.2 °F 17.6 °F 100% 29.94 in 1.2 mi Variable 6.9 mph - N/A   Overcast
8:26 PM 17.6 °F 10.7 °F 17.6 °F 100% 29.93 in 0.8 mi ENE 4.6 mph - N/A Fog Light Freezing Fog
8:46 PM 17.6 °F 9.3 °F 17.6 °F 100% 29.91 in 1.5 mi NNE 5.8 mph - N/A   Mist
8:55 PM 18.7 °F 10.6 °F 18.7 °F 100% 29.91 in 4.0 mi NNE 5.8 mph - N/A   Mostly Cloudy
9:06 PM 19.4 °F 11.5 °F 19.4 °F 100% 29.90 in 10.0 mi Variable 5.8 mph - N/A   Mostly Cloudy
9:55 PM 20.5 °F 12.8 °F 20.1 °F 99% 29.86 in 10.0 mi Variable 5.8 mph - N/A   Mostly Cloudy
10:06 PM 21.2 °F 10.1 °F 19.4 °F 93% 29.86 in 10.0 mi NE 10.4 mph 13.8 mph N/A   Mostly Cloudy
10:55 PM 19.2 °F 10.2 °F 18.5 °F 97% 29.85 in 10.0 mi NNE 6.9 mph - N/A   Mostly Cloudy
11:06 PM 19.4 °F 12.8 °F 17.6 °F 93% 29.85 in 10.0 mi NE 4.6 mph - N/A   Mostly Cloudy
11:55 PM 19.0 °F 11.1 °F 18.5 °F 98% 29.82 in 10.0 mi NNE 5.8 mph - N/A   Mostly Cloudy